KC3QLX Weather Reports


time (UTC)temp
C
wind
direction
speed
KPH
gust
KPH
rain 1hr
cm
rain 24hr
cm
rain mn
cm
humidity
%
barometer
mb
20260504120213 5 226 0.0 0.0 0.00 0.00 0.00 96 1013.9
20260504110514 0 224 0.0 0.0 0.00 0.00 0.00 98 1013.7
20260504100326 0 224 0.0 0.0 0.00 0.00 0.00 98 1013.5
20260504081720 1 225 0.0 0.0 0.00 0.00 0.00 96 1014.0
20260504081216 1 225 0.0 0.0 0.00 0.00 0.00 96 1013.8
20260504080713 0 225 0.0 0.0 0.00 0.00 0.00 95 1013.7
20260504080209 1 225 0.0 0.0 0.00 0.00 0.00 95 1013.7
20260504070137 1 225 0.0 0.0 0.00 0.00 0.00 94 1013.6
20260504050526 2 225 0.0 0.0 0.00 0.00 0.00 90 1013.7
20260504050023 2 225 0.0 0.0 0.00 0.00 0.00 90 1013.6
20260504045520 2 225 0.0 0.0 0.00 0.00 0.00 90 1013.5
20260504045015 3 225 0.0 0.0 0.00 0.00 0.00 90 1013.5
20260504044513 3 225 0.0 0.0 0.00 0.00 0.00 89 1013.5
20260504044009 3 225 0.0 0.0 0.00 0.00 0.00 89 1013.6
20260504043506 3 225 0.0 0.0 0.00 0.00 0.00 88 1013.5
20260504043004 3 225 0.0 0.0 0.00 0.00 0.00 87 1013.5
20260504042500 3 225 0.0 0.0 0.00 0.00 0.00 87 1013.7
20260504041957 3 225 0.0 0.0 0.00 0.00 0.00 88 1013.5
20260504041454 3 225 0.0 0.0 0.00 0.00 0.00 89 1013.4
20260504040949 3 225 0.0 0.0 0.00 0.00 0.00 89 1013.4
20260504040447 3 225 0.0 0.0 0.00 0.00 0.00 90 1013.3
20260504035943 3 225 0.0 0.0 0.00 0.00 0.00 89 1013.3
20260504035441 3 225 0.0 0.0 0.00 0.00 0.00 89 1013.1
20260504034937 3 225 0.0 0.0 0.00 0.00 0.00 89 1013.1
20260504034435 4 225 0.0 0.0 0.00 0.00 0.00 89 1012.9
20260504033932 4 225 0.0 0.0 0.00 0.00 0.00 89 1012.8
20260504033429 4 225 0.0 0.0 0.00 0.00 0.00 88 1013.0
20260504032926 4 225 0.0 0.0 0.00 0.00 0.00 87 1012.7
20260504032423 4 225 0.0 0.0 0.00 0.00 0.00 86 1012.6
20260504031920 4 225 0.0 0.0 0.00 0.00 0.00 86 1012.8
20260504031417 4 225 0.0 0.0 0.00 0.00 0.00 85 1012.9
20260504030913 5 225 0.0 0.0 0.00 0.00 0.00 86 1012.8
20260504030411 5 225 0.0 0.0 0.00 0.00 0.00 86 1012.7
20260504025906 5 225 0.0 0.0 0.00 0.00 0.00 86 1012.8
20260504025404 5 225 0.0 0.0 0.00 0.00 0.00 85 1012.7
20260504024901 5 225 0.0 0.0 0.00 0.00 0.00 84 1012.5
20260504024357 5 225 0.0 0.0 0.00 0.00 0.00 84 1012.8
20260504023854 5 225 0.0 0.0 0.00 0.00 0.00 80 1012.8
20260504023350 5 225 0.0 0.0 0.00 0.00 0.00 78 1012.6
20260504022846 5 225 0.0 0.0 0.00 0.00 0.00 77 1012.6
20260504022343 5 225 0.0 0.0 0.00 0.00 0.00 75 1012.7
20260504021839 5 225 0.0 0.0 0.00 0.00 0.00 75 1012.6
20260504021337 5 225 0.0 0.0 0.00 0.00 0.00 74 1012.9
20260504020834 6 225 0.0 0.0 0.00 0.00 0.00 73 1012.8
20260504020331 6 225 0.0 0.0 0.00 0.00 0.00 74 1012.7
20260504015826 6 225 0.0 0.0 0.00 0.00 0.00 72 1012.9
20260504015323 6 225 0.0 0.0 0.00 0.00 0.00 71 1012.7
20260504014820 6 225 0.0 0.0 0.00 0.00 0.00 70 1012.6
20260504014315 6 224 0.0 0.0 0.00 0.00 0.00 69 1012.6
20260504013813 7 225 0.0 0.0 0.00 0.00 0.00 68 1012.6
20260504013311 7 224 0.0 0.0 0.00 0.00 0.00 67 1012.4
20260504012808 7 224 0.0 0.0 0.00 0.00 0.00 67 1012.6
20260504012305 7 224 0.0 0.0 0.00 0.00 0.00 65 1012.5
20260504011803 8 225 0.0 0.0 0.00 0.00 0.00 61 1012.6
20260504011258 8 225 0.0 0.0 0.00 0.00 0.00 60 1012.6
20260504010754 8 225 0.0 0.0 0.00 0.00 0.00 57 1012.5
20260504010250 8 225 0.0 0.0 0.00 0.00 0.00 58 1012.5
20260504005747 9 225 0.0 0.0 0.00 0.00 0.00 56 1012.3
20260504005244 9 224 0.0 0.0 0.00 0.00 0.00 55 1012.4
20260504004742 10 225 0.0 0.0 0.00 0.00 0.00 54 1012.4
20260504004239 10 225 0.0 0.0 0.00 0.00 0.00 54 1012.2
20260504003735 10 224 0.0 0.0 0.00 0.00 0.00 54 1012.3
20260504003233 10 224 0.0 0.0 0.00 0.00 0.00 52 1012.2
20260504002729 10 225 0.0 0.0 0.00 0.00 0.00 51 1011.8
20260504002226 11 224 1.6 1.6 0.00 0.00 0.00 50 1012.0
20260504001724 11 226 0.0 0.0 0.00 0.00 0.00 50 1011.7
20260504001221 11 208 0.0 0.0 0.00 0.00 0.00 50 1011.7
20260504000717 11 202 0.0 0.0 0.00 0.00 0.00 48 1011.7
20260504000214 11 236 0.0 1.6 0.00 0.00 0.00 48 1011.6
20260503235713 12 260 0.0 0.0 0.00 0.00 0.00 48 1011.6
20260503235209 12 299 0.0 1.6 0.00 0.00 0.00 46 1011.8
20260503234707 12 345 1.6 1.6 0.00 0.00 0.00 45 1011.6
20260503234205 12 237 0.0 0.0 0.00 0.00 0.00 43 1011.7
20260503233702 13 277 0.0 1.6 0.00 0.00 0.00 43 1011.7
20260503233157 13 201 0.0 0.0 0.00 0.00 0.00 43 1011.7
20260503232654 13 71 1.6 1.6 0.00 0.00 0.00 44 1011.6
20260503232151 13 303 1.6 1.6 0.00 0.00 0.00 43 1011.4
20260503231650 13 152 1.6 3.2 0.00 0.00 0.00 41 1011.3
20260503231145 13 240 1.6 3.2 0.00 0.00 0.00 41 1011.2
20260503230643 13 304 3.2 3.2 0.00 0.00 0.00 39 1011.3
20260503230140 14 328 0.0 0.0 0.00 0.00 0.00 40 1011.3
20260503225637 14 297 0.0 0.0 0.00 0.00 0.00 40 1011.4
20260503225137 13 302 1.6 1.6 0.00 0.00 0.00 42 1011.4
20260503224634 14 298 4.8 4.8 0.00 0.00 0.00 40 1011.3
20260503224132 15 286 3.2 3.2 0.00 0.00 0.00 40 1011.3
20260503223630 15 44 3.2 4.8 0.00 0.00 0.00 39 1011.3
20260503223126 15 24 3.2 4.8 0.00 0.00 0.00 38 1011.3
20260503222623 14 283 1.6 3.2 0.00 0.00 0.00 40 1011.2
20260503222121 15 222 9.7 11.3 0.00 0.00 0.00 37 1011.1
20260503221619 15 16 6.4 9.7 0.00 0.00 0.00 38 1011.1
20260503221116 15 284 4.8 4.8 0.00 0.00 0.00 37 1011.1
20260503220613 15 325 1.6 3.2 0.00 0.00 0.00 38 1011.2
20260503220110 15 268 4.8 4.8 0.00 0.00 0.00 36 1011.1
20260503215607 15 260 4.8 4.8 0.00 0.00 0.00 41 1011.2
20260503215103 15 25 4.8 4.8 0.00 0.00 0.00 39 1011.5
20260503214602 15 267 6.4 9.7 0.00 0.00 0.00 35 1011.2
20260503214058 16 253 3.2 4.8 0.00 0.00 0.00 36 1011.1
20260503213557 15 305 6.4 8.0 0.00 0.00 0.00 38 1011.0
20260503213053 15 292 3.2 4.8 0.00 0.00 0.00 36 1011.2
20260503212550 15 294 9.7 12.9 0.00 0.00 0.00 35 1011.1
20260503212048 15 37 3.2 4.8 0.00 0.00 0.00 37 1011.2
20260503211545 15 339 1.6 1.6 0.00 0.00 0.00 39 1010.9
20260503211040 14 326 1.6 1.6 0.00 0.00 0.00 38 1010.9
20260503210537 15 292 4.8 4.8 0.00 0.00 0.00 37 1011.0
20260503210033 15 123 1.6 3.2 0.00 0.00 0.00 36 1011.0
20260503205530 14 282 3.2 3.2 0.00 0.00 0.00 37 1011.1
20260503205026 15 9 4.8 8.0 0.00 0.00 0.00 36 1011.0
20260503204523 15 289 3.2 8.0 0.00 0.00 0.00 36 1011.1
20260503204020 15 293 1.6 3.2 0.00 0.00 0.00 37 1011.1
20260503203517 15 242 6.4 9.7 0.00 0.00 0.00 34 1011.1
20260503203015 15 263 4.8 4.8 0.00 0.00 0.00 36 1011.1
20260503202512 15 257 4.8 11.3 0.00 0.00 0.00 37 1011.1
20260503202010 15 279 6.4 8.0 0.00 0.00 0.00 34 1011.1
20260503201508 15 237 6.4 8.0 0.00 0.00 0.00 36 1011.2
20260503201005 15 277 1.6 1.6 0.00 0.00 0.00 35 1011.3
20260503200501 14 282 4.8 4.8 0.00 0.00 0.00 38 1011.4
20260503195957 13 284 6.4 9.7 0.00 0.00 0.00 37 1011.5
20260503195455 14 280 8.0 9.7 0.00 0.00 0.00 37 1011.4
20260503194951 15 263 4.8 4.8 0.00 0.00 0.00 37 1011.7
20260503194449 15 34 1.6 3.2 0.00 0.00 0.00 36 1011.7
20260503193944 15 153 6.4 8.0 0.00 0.00 0.00 35 1011.8
20260503193440 14 55 6.4 9.7 0.00 0.00 0.00 37 1011.9
20260503192935 14 5 4.8 4.8 0.00 0.00 0.00 37 1011.8
20260503192432 13 340 4.8 4.8 0.00 0.00 0.00 36 1012.0
20260503191927 14 355 3.2 4.8 0.00 0.00 0.00 35 1012.3
20260503191426 14 249 8.0 12.9 0.00 0.00 0.00 34 1011.9
20260503190922 15 108 4.8 4.8 0.00 0.00 0.00 35 1012.2
20260503190419 14 285 0.0 1.6 0.00 0.00 0.00 36 1012.0
20260503185916 14 294 6.4 8.0 0.00 0.00 0.00 35 1012.1
20260503185412 13 271 3.2 4.8 0.00 0.00 0.00 37 1012.3
20260503184911 13 342 4.8 4.8 0.00 0.00 0.00 38 1012.2
20260503184408 13 284 8.0 11.3 0.00 0.00 0.00 38 1012.4
20260503183905 13 286 4.8 4.8 0.00 0.00 0.00 36 1012.5
20260503183401 13 265 4.8 11.3 0.00 0.00 0.00 39 1012.6
20260503182858 13 253 6.4 9.7 0.00 0.00 0.00 37 1012.7
20260503182357 12 303 6.4 8.0 0.00 0.00 0.00 42 1012.8
20260503181854 13 197 9.7 14.5 0.00 0.00 0.00 38 1012.9
20260503181351 13 278 8.0 9.7 0.00 0.00 0.00 39 1012.7
20260503180847 12 243 4.8 8.0 0.00 0.00 0.00 40 1012.9
20260503180346 12 270 6.4 9.7 0.00 0.00 0.00 42 1012.8
20260503175842 12 323 9.7 16.1 0.00 0.00 0.00 40 1013.0
20260503175340 11 315 3.2 3.2 0.00 0.00 0.00 43 1013.0
20260503174835 12 278 3.2 3.2 0.00 0.00 0.00 42 1013.0
20260503174333 12 113 4.8 4.8 0.00 0.00 0.00 41 1012.9
20260503173828 12 344 3.2 4.8 0.00 0.00 0.00 40 1013.1
20260503173325 11 308 4.8 4.8 0.00 0.00 0.00 46 1013.3
20260503172822 11 132 3.2 3.2 0.00 0.00 0.00 40 1012.9
20260503172320 12 299 3.2 3.2 0.00 0.00 0.00 41 1013.0
20260503171815 12 66 4.8 4.8 0.00 0.00 0.00 40 1013.4
20260503171312 11 3 3.2 3.2 0.00 0.00 0.00 42 1013.1
20260503170810 11 310 6.4 11.3 0.00 0.00 0.00 42 1013.4
20260503170306 12 335 8.0 9.7 0.00 0.00 0.00 42 1013.3
20260503150658 11 282 4.8 9.7 0.00 0.00 0.00 44 1013.9
20260503150154 10 39 6.4 9.7 0.00 0.00 0.00 42 1013.8
20260503140119 7 279 4.8 4.8 0.00 0.00 0.00 60 1014.1
20260503131048 6 25 4.8 8.0 0.00 0.00 0.00 64 1014.4
20260503130545 6 343 3.2 3.2 0.00 0.00 0.00 65 1014.3